User: anonymous
Location: Waning Moon II Observatory
(30.3730°N, 89.7620°W)
Time: 23:19:47
(UTC-05:00)
Language:

Cosmos 1825 Rocket - Orbit

View from above orbital plane
View from above orbital plane
View from above satellite
View from above satellite

Ground track
Ground track

The orbit data is extracted from the following two-line orbital elements,

1 17567U 87024B   14265.01516583  .00000337  00000-0  38291-4 0  4641
2 17567 082.5296 053.9399 0020086 045.7051 093.5397 14.83140372488331
Epoch (UTC): 22 September 2014 00:21:50
Eccentricity: 0.0020086
inclination: 82.5296°
perigee height: 605 km
apogee height: 633 km
right ascension of ascending node: 53.9399°
argument of perigee: 45.7051°
revolutions per day: 14.83140372
mean anomaly at epoch: 93.5397°
orbit number at epoch: 48833

The dashed part of the orbit path shows where the satellite is in the earth's shadow,  

DLR